RH
30 31 31 29 26 29 31 32 30 29 31 25 22 20 20 24 25 29 32 33 33 32
33 35 35 37 37 39 31 31 33 34 35 31 26 24 22 22 21 25 28 30 31 32
34 36 38 39 44 46 41 33 34 37 37 35 27 25 21 20 18 21 24 28 31 34
57 41 44 42 47 52 51 49 39 35 35 36 30 27 21 21 25 27 30 34 36 36
36 59 43 46 54 56 57 51 47 39 37 35 33 30 26 26 28 31 35 39 40 39
55 52 53 53 58 56 60 49 50 48 42 40 34 31 29 33 39 41 42 39 37 37
60 59 76 60 65 55 61 55 54 54 48 47 40 35 33 42 47 47 47 46 42 41
52 72 81 76 78 71 61 61 56 55 53 53 53 46 39 46 55 56 54 50 46 44
61 67 89 93 84 79 67 64 56 61 55 58 62 55 46 51 62 65 62 54 51 45
62 67 78 91 73 89 75 68 55 58 58 62 68 61 58 62 67 70 66 53 45 42
68 68 90 77 72 84 73 65 57 61 64 67 73 67 73 79 75 73 61 49 43 41
58 64 76 86 73 80 74 62 64 68 73 79 79 81 79 84 79 64 52 43 43 45
55 63 71 76 80 76 75 69 74 74 78 82 92 92 88 87 79 54 39 41 44 46
53 62 69 74 82 77 73 75 76 79 78 82 88 86 88 83 63 42 41 42 41 45